Location: Brantley
(31.5822°N, 86.2569°W)
Time: 16:46:46
(UTC+00:00)

Injun/Solrad 3 - Pass Details

Date: 21 February 2026
Orbit: 871 x 985 km, 66.8° (Epoch: 11 March)

Event Time Altitude Azimuth Distance (km) Brightness Sun altitude
Rises 16:40:29 0° 234° (SW) 3,446 11.0 44.1°
Reaches altitude 10° 16:43:18 10° 246° (WSW) 2,513 10.3 44.3°
Maximum altitude 16:48:11 28° 304° (WNW) 1,601 9.1 44.8°
Drops below altitude 10° 16:53:09 10° 2° (N) 2,554 9.9 45.2°
Sets 16:56:04 0° 14° (NNE) 3,512 10.6 45.5°
